[[{"header":{"parameterUnit":"m.s-1","parameterCategory":1,"la1":30.2991,"la2":30.254,"lo1":-89.0895,"lo2":-89.0444,"dy":0.0017,"dx":0.0017,"nx":28,"ny":28,"refTime":"2025-06-22T09:00:00:Z","depth":0,"parameterNumber":2,"parameterNumberName":"U-component_of_WINDS"},"data":[0,0,0,0,0,0,0,0,0,0,0,0,0,0,0,0,0,0,0,0,0,0,0,0,0,0,0,0,0,0,0,0,0,0,0,0,0,0,0,0,0,0,0,0,0,0,0,0,0,0,0,0,0,0,0,0,0,0,-1.6802,-1.6802,0,-1.6734,-1.6733,-1.6732,-1.6641,-1.664,-1.6638,-1.6637,-1.6566,-1.6565,-1.6565,0,0,0,0,0,0,0,0,0,0,0,0,0,-1.6855,-1.6855,-1.6802,-1.6802,-1.6801,-1.6734,-1.6733,-1.6732,-1.6641,-1.664,-1.6638,-1.6636,-1.6566,-1.6565,-1.6565,0,0,0,0,0,0,0,0,0,0,0,0,0,-1.6814,-1.6855,-1.6803,-1.6748,-1.6742,-1.6734,-1.6733,-1.6732,-1.6642,-1.6639,-1.6637,-1.6635,-1.6566,-1.6565,-1.6565,-1.6605,0,0,-1.6562,-1.6562,0,0,0,0,0,0,0,0,-1.6817,-1.6812,-1.6756,-1.6751,-1.6745,-1.6694,-1.6725,-1.6689,-1.6642,-1.668,-1.6637,-1.6634,-1.661,-1.6606,-1.6598,-1.6602,-1.6599,-1.6562,-1.6562,-1.6561,-1.6561,0,0,0,0,0,0,0,-1.682,-1.6815,-1.6775,-1.6756,-1.6749,-1.6726,-1.6718,-1.6718,-1.6658,-1.6676,-1.667,-1.6663,-1.6606,-1.6598,-1.6595,-1.6597,-1.6562,-1.6562,-1.6561,-1.6561,-1.6631,-1.6633,0,0,0,0,0,0,-1.6831,-1.6818,-1.6777,-1.6773,-1.6776,-1.6727,-1.6718,-1.6712,-1.6658,-1.6648,-1.6665,-1.6659,-1.6601,-1.6596,-1.6592,-1.6635,-1.6561,-1.6561,-1.656,-1.6628,-1.6631,-1.6634,0,0,0,0,0,0,-1.6832,-1.6828,-1.678,-1.6794,-1.6786,-1.6729,-1.6723,-1.6712,-1.6704,-1.6649,-1.6638,-1.6667,-1.6599,-1.6593,-1.6602,-1.6631,-1.656,-1.656,-1.6626,-1.6629,-1.6632,-1.6722,0,0,0,0,0,0,-1.6834,-1.6829,-1.6844,-1.6795,-1.6785,-1.6792,-1.6725,-1.6712,-1.6703,-1.6695,-1.6649,-1.6639,-1.6597,-1.6604,-1.6602,-1.6629,-1.6559,-1.6623,-1.6627,-1.6631,-1.6716,-1.6728,-1.6738,0,0,0,0,0,-1.6836,-1.6872,-1.6845,-1.6841,-1.6803,-1.6793,-1.6788,-1.6739,-1.6706,-1.672,-1.6685,-1.6641,-1.6629,-1.6606,-1.6602,-1.663,-1.6621,-1.6626,-1.6631,-1.6711,-1.6725,-1.6738,0,0,0,0,0,0,-1.6925,-1.6864,-1.6834,-1.6854,-1.683,-1.6778,-1.6794,-1.6756,-1.674,-1.6732,-1.6672,-1.6662,-1.6679,-1.6655,-1.663,-1.6666,-1.6618,-1.6623,-1.668,-1.6693,-1.6704,-1.6709,-1.6559,0,0,0,0,0,-1.6948,-1.6945,-1.6892,-1.6915,-1.6904,-1.6852,-1.6846,-1.681,-1.6782,-1.6771,-1.6737,-1.6711,-1.6702,-1.6696,-1.6685,-1.6713,-1.6701,-1.673,-1.6741,-1.675,-1.6755,-1.6767,-1.6779,-1.6651,-1.665,-1.665,0,0,-1.6993,-1.6959,-1.6961,-1.6932,-1.6909,-1.6908,-1.6844,-1.6845,-1.6843,-1.6771,-1.6777,-1.6752,-1.6719,-1.6738,-1.6744,-1.6719,-1.6788,-1.6757,-1.6765,-1.6764,-1.6774,-1.6786,-1.6797,-1.6654,-1.6653,-1.6653,0,0,-1.7074,-1.705,-1.7065,-1.7044,-1.7009,-1.6974,-1.6979,-1.6933,-1.6913,-1.6918,-1.6864,-1.6862,-1.6847,-1.6825,-1.6813,-1.6888,-1.6846,-1.6886,-1.6943,-1.6955,-1.6966,-1.6974,-1.7,-1.701,-1.6891,-1.6891,-1.6891,0,-1.7135,-1.7131,-1.7079,-1.7083,-1.7072,-1.7008,-1.7023,-1.7005,-1.6969,-1.6962,-1.6935,-1.6914,-1.6888,-1.69,-1.6919,-1.6911,-1.6913,-1.689,-1.6968,-1.6977,-1.6984,-1.7007,-1.7017,-1.6896,-1.6895,-1.6895,-1.6894,0,-1.7207,-1.7205,-1.7222,-1.7189,-1.718,-1.719,-1.7139,-1.7136,-1.7102,-1.707,-1.7076,-1.7042,-1.7022,-1.7023,-1.6989,-1.7031,-1.7016,-1.698,-1.693,-1.7002,-1.7023,-1.7032,-1.6903,-1.6901,-1.69,-1.6898,0,0,-1.7341,-1.7279,-1.7286,-1.727,-1.7228,-1.7226,-1.7234,-1.7214,-1.7212,-1.719,-1.7194,-1.7184,-1.715,-1.7136,-1.7099,-1.7111,-1.7171,-1.7072,-1.7071,-1.7091,-1.7213,-1.724,-1.7252,-1.7144,-1.7146,-1.7147,-1.7216,0,-1.7413,-1.7423,-1.7376,-1.7397,-1.7395,-1.7334,-1.7341,-1.7316,-1.7287,-1.728,-1.7247,-1.724,-1.7197,-1.7188,-1.7196,-1.7162,-1.7195,-1.7157,-1.7147,-1.7147,-1.7155,-1.7263,-1.7291,-1.7357,-1.7224,-1.7225,-1.7226,0,-1.7499,-1.7481,-1.7503,-1.7459,-1.7456,-1.7463,-1.7442,-1.7437,-1.7407,-1.7385,-1.737,-1.7328,-1.7332,-1.7287,-1.7291,-1.7267,-1.726,-1.7243,-1.7244,-1.724,-1.719,-1.726,-1.7377,-1.7387,-1.7239,-1.7238,-1.7237,0,-1.7593,-1.7575,-1.7585,-1.7573,-1.7524,-1.753,-1.7509,-1.7478,-1.7469,-1.7451,-1.7444,-1.7427,-1.7417,-1.7404,-1.7359,-1.733,-1.7369,-1.732,-1.735,-1.7351,-1.7359,-1.7359,-1.7475,-1.7358,-1.7358,-1.7358,-1.7357,0,-1.7678,-1.7693,-1.7626,-1.7633,-1.7648,-1.7595,-1.7611,-1.7585,-1.7557,-1.7557,-1.7504,-1.7505,-1.7446,-1.744,-1.7405,-1.7413,-1.741,-1.7391,-1.7381,-1.7395,-1.7397,-1.7389,-1.7382,-1.736,-1.736,-1.7359,-1.7359,0,-1.7785,-1.7741,-1.7748,-1.7701,-1.7689,-1.7702,-1.7661,-1.7665,-1.7633,-1.7633,-1.7631,-1.758,-1.7571,-1.7525,-1.7505,-1.7481,-1.7501,-1.7483,-1.7511,-1.7504,-1.7537,-1.7534,-1.765,-1.7663,-1.7539,-1.7541,-1.7542,0,-1.7841,-1.7851,-1.7805,-1.7801,-1.7783,-1.7778,-1.7769,-1.7718,-1.771,-1.7678,-1.7685,-1.7672,-1.7658,-1.7646,-1.7607,-1.7592,-1.7571,-1.7613,-1.7568,-1.7582,-1.757,-1.757,-1.757,-1.7622,-1.7624,-1.7625,-1.7626,0,-1.7945,-1.7923,-1.7912,-1.7894,-1.7885,-1.7868,-1.7848,-1.7848,-1.7791,-1.7786,-1.7776,-1.7765,-1.7745,-1.7732,-1.771,-1.7688,-1.7648,-1.7641,-1.7647,-1.766,-1.7676,-1.7667,-1.7536,-1.7638,-1.7637,-1.7636,-1.7636,-1.7635,-1.8027,-1.8033,-1.8002,-1.7992,-1.7971,-1.7954,-1.7955,-1.7923,-1.7914,-1.7893,-1.7864,-1.7858,-1.7828,-1.7794,-1.7776,-1.777,-1.7747,-1.7756,-1.7758,-1.7761,-1.7767,-1.7678,-1.7766,-1.7766,-1.7765,-1.7765,-1.7765,0,-1.8128,-1.8105,-1.8096,-1.807,-1.8062,-1.8025,-1.8001,-1.7997,-1.7992,-1.7968,-1.7956,-1.7944,-1.7931,-1.7892,-1.7876,-1.7878,-1.7859,-1.7876,-1.7874,-1.787,-1.7789,-1.7785,-1.7891,-1.7891,-1.7891,-1.7891,-1.7891,-1.7891,-1.8179,-1.8187,-1.8161,-1.8159,-1.8135,-1.8129,-1.8118,-1.8102,-1.8082,-1.8072,-1.8061,-1.8036,-1.8006,-1.7986,-1.7973,-1.7962,-1.7957,-1.798,-1.7962,-1.7888,-1.7875,-1.7864,-1.786,-1.7979,-1.798,-1.8043,-1.8043,-1.8044]},{"header":{"parameterUnit":"m.s-1","parameterCategory":1,"la1":30.2991,"la2":30.254,"lo1":-89.0895,"lo2":-89.0444,"dy":0.0017,"dx":0.0017,"nx":28,"ny":28,"refTime":"2025-06-22T09:00:00:Z","depth":0,"parameterNumber":3,"parameterNumberName":"V-component_of_WINDS"},"data":[0,0,0,0,0,0,0,0,0,0,0,0,0,0,0,0,0,0,0,0,0,0,0,0,0,0,0,0,0,0,0,0,0,0,0,0,0,0,0,0,0,0,0,0,0,0,0,0,0,0,0,0,0,0,0,0,0,0,2.5941,2.5941,0,2.5977,2.5978,2.5978,2.5952,2.5951,2.5949,2.5948,2.5985,2.5987,2.5989,0,0,0,0,0,0,0,0,0,0,0,0,0,2.5847,2.5849,2.5941,2.5941,2.5942,2.5977,2.5978,2.5978,2.5952,2.5951,2.5949,2.5948,2.5985,2.5987,2.599,0,0,0,0,0,0,0,0,0,0,0,0,0,2.5886,2.5849,2.5941,2.5933,2.5932,2.5977,2.5978,2.5978,2.5952,2.5951,2.5949,2.5947,2.5984,2.5987,2.599,2.6044,0,0,2.5999,2.6001,0,0,0,0,0,0,0,0,2.5884,2.5889,2.5933,2.5933,2.5933,2.5958,2.5958,2.6,2.5953,2.5945,2.5948,2.5946,2.5978,2.5981,2.5992,2.6046,2.6048,2.6,2.6002,2.6003,2.6004,0,0,0,0,0,0,0,2.5881,2.5888,2.5955,2.5934,2.5934,2.5927,2.5931,2.5966,2.5971,2.5945,2.5943,2.5948,2.5977,2.5989,2.5993,2.6048,2.6,2.6002,2.6004,2.6006,2.6148,2.6149,0,0,0,0,0,0,2.5879,2.5886,2.5954,2.5956,2.5904,2.593,2.5934,2.5952,2.597,2.5971,2.595,2.5947,2.5985,2.5989,2.5994,2.6058,2.6003,2.6006,2.6008,2.6146,2.6148,2.615,0,0,0,0,0,0,2.5877,2.5885,2.5952,2.592,2.5928,2.5934,2.5954,2.5954,2.5965,2.5973,2.5974,2.5961,2.5983,2.5989,2.6032,2.6059,2.6007,2.601,2.6144,2.6146,2.6149,2.6187,0,0,0,0,0,0,2.5875,2.5885,2.5906,2.5921,2.593,2.599,2.5955,2.5956,2.5971,2.5967,2.5984,2.5985,2.5982,2.6027,2.6035,2.6062,2.6013,2.6141,2.6145,2.6148,2.6184,2.6191,2.6198,0,0,0,0,0,2.5871,2.5915,2.5907,2.5916,2.5957,2.5992,2.5997,2.5993,2.5973,2.5994,2.5999,2.5985,2.6055,2.6032,2.604,2.6069,2.6139,2.6144,2.6148,2.6181,2.619,2.6197,0,0,0,0,0,0,2.5903,2.5917,2.5908,2.5959,2.5974,2.5987,2.6014,2.6003,2.6025,2.6021,2.6015,2.6019,2.6063,2.607,2.6044,2.6122,2.6094,2.61,2.6116,2.6125,2.6131,2.6129,2.6015,0,0,0,0,0,2.5916,2.5944,2.5954,2.5998,2.6006,2.6009,2.6024,2.6019,2.6035,2.6042,2.605,2.6066,2.6091,2.6108,2.6132,2.6185,2.6188,2.6208,2.6215,2.6221,2.6226,2.6254,2.6263,2.6164,2.6164,2.6164,0,0,2.5943,2.5954,2.5972,2.6004,2.6016,2.6045,2.6014,2.6046,2.6067,2.6047,2.6087,2.6094,2.6111,2.6158,2.6179,2.6166,2.6254,2.6227,2.6231,2.6233,2.6259,2.6269,2.6277,2.6167,2.6167,2.6166,0,0,2.6007,2.6018,2.6055,2.6067,2.6085,2.6086,2.6095,2.611,2.6114,2.6154,2.6139,2.6164,2.6208,2.6221,2.6233,2.6301,2.6288,2.6309,2.6345,2.6372,2.638,2.6386,2.641,2.6419,2.6314,2.6314,2.6314,0,2.6038,2.608,2.6075,2.6108,2.6122,2.6105,2.6142,2.6154,2.6179,2.6189,2.6173,2.6228,2.6239,2.6288,2.6305,2.6315,2.6325,2.6307,2.6379,2.6386,2.6392,2.6415,2.6424,2.6316,2.6316,2.6316,2.6316,0,2.6118,2.6147,2.6175,2.6199,2.6217,2.6251,2.6251,2.6269,2.6263,2.6266,2.6307,2.6319,2.6345,2.6356,2.6351,2.6405,2.6396,2.638,2.6351,2.6404,2.6425,2.6434,2.632,2.6319,2.6318,2.6318,0,0,2.6203,2.6223,2.6234,2.6244,2.6262,2.6285,2.6318,2.6344,2.6359,2.6377,2.6405,2.6442,2.6427,2.6441,2.6436,2.646,2.6512,2.6441,2.6441,2.6453,2.6573,2.6585,2.6595,2.6504,2.6506,2.6507,2.6571,0,2.6267,2.6326,2.6322,2.6377,2.6404,2.6387,2.6417,2.6431,2.6434,2.6457,2.6461,2.6487,2.6466,2.6474,2.6496,2.6501,2.6536,2.6497,2.6529,2.6531,2.6526,2.6606,2.6619,2.6679,2.6579,2.6581,2.6582,0,2.635,2.637,2.6428,2.6441,2.6452,2.6479,2.6501,2.6524,2.6539,2.654,2.6555,2.6547,2.658,2.6551,2.6596,2.657,2.6583,2.6587,2.6589,2.6592,2.6559,2.6611,2.6698,2.6707,2.6595,2.6594,2.6593,0,2.6406,2.6447,2.6487,2.6497,2.6513,2.6532,2.654,2.6554,2.6569,2.6588,2.6598,2.6621,2.6634,2.6652,2.665,2.6629,2.6696,2.6667,2.6698,2.6698,2.6712,2.6712,2.6803,2.6721,2.6721,2.6721,2.6721,0,2.6478,2.6514,2.6512,2.6537,2.6576,2.6571,2.661,2.6616,2.6628,2.6653,2.664,2.6664,2.666,2.6683,2.6682,2.672,2.6726,2.6727,2.6726,2.6728,2.6728,2.6737,2.6732,2.6723,2.6723,2.6722,2.6722,0,2.6547,2.6548,2.659,2.6602,2.6606,2.6634,2.6645,2.6668,2.667,2.6701,2.6709,2.6712,2.6739,2.6738,2.6769,2.6768,2.6815,2.6809,2.6809,2.6808,2.6839,2.6836,2.6939,2.6952,2.6862,2.6863,2.6864,0,2.6593,2.662,2.6635,2.6651,2.666,2.6685,2.6701,2.6696,2.6713,2.6732,2.6753,2.6778,2.6799,2.6843,2.6848,2.6871,2.6866,2.69,2.6869,2.687,2.6866,2.6864,2.6867,2.6906,2.6907,2.6908,2.6909,0,2.6674,2.6673,2.6696,2.6718,2.6737,2.6754,2.677,2.6784,2.6781,2.68,2.6828,2.6844,2.6875,2.6901,2.6923,2.6931,2.6919,2.6918,2.6927,2.6929,2.6928,2.6929,2.6826,2.6916,2.6915,2.6915,2.6915,2.6914,2.6733,2.6756,2.677,2.6795,2.6807,2.6822,2.6844,2.6849,2.6872,2.6897,2.6893,2.6923,2.6937,2.6966,2.6976,2.6999,2.6987,2.6999,2.7002,2.7005,2.7009,2.6924,2.7003,2.7003,2.7003,2.7003,2.7003,0,2.6814,2.6821,2.6845,2.6868,2.6887,2.6875,2.6892,2.6909,2.6936,2.695,2.697,2.7002,2.7026,2.7033,2.7057,2.7074,2.707,2.7081,2.7079,2.7081,2.7018,2.7009,2.7084,2.7084,2.7084,2.7084,2.7084,2.7084,2.6858,2.6896,2.6896,2.694,2.6947,2.6977,2.6988,2.7002,2.7013,2.7048,2.7069,2.7073,2.7084,2.7108,2.713,2.7131,2.7141,2.7154,2.7153,2.7094,2.7086,2.7078,2.7069,2.7156,2.7156,2.7214,2.7214,2.7215]}]]